Location: Makanda
(37.6176°N, 89.2090°W)
Time: 19:45:01
(UTC+00:00)

ISS - Pass Details

Date: 23 September 2019
Orbit: 411 x 421 km, 51.6° (Epoch: 16 October)

Event Time Altitude Azimuth Distance (km) Brightness Sun altitude
Rises 01:32:33 0° 273° (W) 2,337 1.5 -20.1°
Reaches altitude 10° 01:35:14 10° 296° (WNW) 1,477 0.2 -20.6°
Maximum altitude 01:37:22 16° 336° (NNW) 1,173 -1.0 -21.0°
Enters shadow 01:39:14 11° 12° (NNE) 1,413 -1.0 -21.3°
